Weather History for KDYT - February, 2014

Change the Weather History Date:

Monday, February 10, 2014

  Actual Average Record
Temperature  
Mean Temperature -2 °F -  
Max Temperature 6 °F 22 °F 68 °F (1997)
Min Temperature -11 °F 3 °F -23 °F (1962)
Degree Days  
Heating Degree Days 68    
Moisture  
Dew Point -13 °F    
Average Humidity 61    
Maximum Humidity 71    
Minimum Humidity 48    
Precipitation  
Precipitation 0.00 in - - ()
Sea Level Pressure  
Sea Level Pressure 30.42 in    
Wind  
Wind Speed 1 mph (WNW)    
Max Wind Speed 16 mph    
Max Gust Speed -    
Visibility 10 miles    
Events      
Averages and records for this station are not official NWS values.
T = Trace of Precipitation, MM = Missing Value Source: NWS Daily Summary

Daily Weather History Graph

Daily Weather History Graph

Search for Another Location

Airport or City:

Trip Planner

Search our weather history database for the weather conditions in past years. The results will help you decide how hot, cold, wet, or windy it might be!

Date:

Astronomy

Feb. 10, 2014 Rise Set
Actual Time 7:19 AM CST 5:25 PM CST
Civil Twilight 6:48 AM CST 5:57 PM CST
Nautical Twilight 6:12 AM CST 6:32 PM CST
Astronomical Twilight 5:37 AM CST 7:08 PM CST
Moon 1:48 PM CST (2/10) 4:19 AM CST (2/10)
Length of Visible Light 11h 08m
Length of Day
10h 05m
Waxing Gibbous, 85% of the Moon is Illuminated
Feb 10
Waxing Gibbous
Feb 14
Full
Feb 22
Last Quarter
Mar 1
New
Mar 8
First Quarter

Hourly Weather History & Observations

Time (CST) Temp. Windchill Dew Point Humidity Pressure Visibility Wind Dir Wind Speed Gust Speed Precip Events Conditions
12:13 AM -2.2 °F - -14.8 °F 55% 30.37 in 10.0 mi Calm Calm - N/A   Clear
12:33 AM -4.0 °F - -14.8 °F 60% 30.37 in 10.0 mi Calm Calm - N/A   Clear
12:54 AM -4.0 °F - -14.8 °F 60% 30.37 in 10.0 mi Calm Calm - N/A   Clear
1:13 AM -5.8 °F - -14.8 °F 65% 30.38 in 10.0 mi Calm Calm - N/A   Clear
1:33 AM -5.8 °F -16.7 °F -14.8 °F 65% 30.38 in 10.0 mi WNW 4.6 mph - N/A   Clear
1:54 AM -5.8 °F - -14.8 °F 65% 30.38 in 10.0 mi Calm Calm - N/A   Clear
2:13 AM -5.8 °F - -14.8 °F 65% 30.38 in 10.0 mi Calm Calm - N/A   Clear
2:33 AM -5.8 °F - -14.8 °F 65% 30.39 in 10.0 mi Calm Calm - N/A   Clear
2:54 AM -7.6 °F - -16.6 °F 65% 30.38 in 10.0 mi Calm Calm - N/A   Clear
3:13 AM -7.6 °F - -16.6 °F 65% 30.39 in 10.0 mi Calm Calm - N/A   Clear
3:33 AM -7.6 °F -23.4 °F -16.6 °F 65% 30.38 in 10.0 mi WNW 8.1 mph - N/A   Clear
3:54 AM -7.6 °F -29.1 °F -16.6 °F 65% 30.38 in 10.0 mi WNW 15.0 mph - N/A   Clear
4:13 AM -7.6 °F -26.6 °F -16.6 °F 65% 30.38 in 10.0 mi WNW 11.5 mph - N/A   Clear
4:33 AM -9.4 °F -27.9 °F -16.6 °F 71% 30.39 in 10.0 mi WNW 10.4 mph - N/A   Clear
4:54 AM -9.4 °F -18.6 °F -16.6 °F 71% 30.39 in 10.0 mi WNW 3.5 mph - N/A   Clear
5:13 AM -9.4 °F - -16.6 °F 71% 30.40 in 10.0 mi Calm Calm - N/A   Clear
5:33 AM -9.4 °F -20.9 °F -18.4 °F 65% 30.40 in 10.0 mi West 4.6 mph - N/A   Clear
5:54 AM -9.4 °F -20.9 °F -18.4 °F 65% 30.41 in 10.0 mi West 4.6 mph - N/A   Clear
6:13 AM -9.4 °F -32.1 °F -18.4 °F 65% 30.41 in 10.0 mi West 16.1 mph - N/A   Clear
6:33 AM -9.4 °F - -18.4 °F 65% 30.42 in 10.0 mi Calm Calm - N/A   Clear
6:54 AM -9.4 °F - -18.4 °F 65% 30.42 in 10.0 mi Calm Calm - N/A   Clear
7:13 AM -11.2 °F - -18.4 °F 70% 30.42 in 10.0 mi Calm Calm - N/A   Clear
7:33 AM -11.2 °F - -18.4 °F 70% 30.43 in 10.0 mi Calm Calm - N/A   Clear
7:53 AM -11.2 °F - -18.4 °F 70% 30.44 in 10.0 mi Calm Calm - N/A   Scattered Clouds
8:13 AM -9.4 °F - -18.4 °F 65% 30.44 in 10.0 mi Calm Calm - N/A   Scattered Clouds
8:34 AM -9.4 °F - -18.4 °F 65% 30.45 in 10.0 mi Calm Calm - N/A   Clear
8:53 AM -9.4 °F - -18.4 °F 65% 30.45 in 10.0 mi Calm Calm - N/A   Clear
9:13 AM -9.4 °F - -18.4 °F 65% 30.45 in 10.0 mi Calm Calm - N/A   Clear
9:34 AM -9.4 °F - -18.4 °F 65% 30.45 in 10.0 mi Calm Calm - N/A   Clear
9:53 AM -7.6 °F - -16.6 °F 65% 30.45 in 10.0 mi Calm Calm - N/A   Clear
10:13 AM -5.8 °F - -16.6 °F 60% 30.44 in 10.0 mi Calm Calm - N/A   Clear
10:34 AM -5.8 °F - -14.8 °F 65% 30.44 in 10.0 mi Calm Calm - N/A   Clear
10:53 AM -2.2 °F - -14.8 °F 55% 30.44 in 10.0 mi Calm Calm - N/A   Clear
11:13 AM -2.2 °F - -13.0 °F 60% 30.44 in 10.0 mi Calm Calm - N/A   Clear
11:34 AM -2.2 °F - -13.0 °F 60% 30.44 in 10.0 mi Calm Calm - N/A   Scattered Clouds
11:53 AM -0.4 °F - -11.2 °F 60% 30.43 in 10.0 mi Calm Calm - N/A   Scattered Clouds
12:13 PM -0.4 °F - -11.2 °F 60% 30.42 in 10.0 mi Calm Calm - N/A   Clear
12:34 PM 1.4 °F - -11.2 °F 56% 30.41 in 10.0 mi Calm Calm - N/A   Clear
12:53 PM 1.4 °F - -11.2 °F 56% 30.41 in 10.0 mi Calm Calm - N/A   Clear
1:13 PM 3.2 °F - -11.2 °F 51% 30.41 in 10.0 mi Calm Calm - N/A   Clear
1:34 PM 3.2 °F - -11.2 °F 51% 30.40 in 10.0 mi Calm Calm - N/A   Clear
1:53 PM 3.2 °F - -11.2 °F 51% 30.40 in 10.0 mi Calm Calm - N/A   Clear
2:13 PM 5.0 °F - -9.4 °F 52% 30.40 in 10.0 mi Calm Calm - N/A   Clear
2:34 PM 5.0 °F - -9.4 °F 52% 30.40 in 10.0 mi Calm Calm - N/A   Clear
2:53 PM 6.8 °F - -9.4 °F 48% 30.40 in 10.0 mi Calm Calm - N/A   Scattered Clouds
3:13 PM 6.8 °F - -9.4 °F 48% 30.40 in 10.0 mi Calm Calm - N/A   Clear
3:33 PM 6.8 °F - -9.4 °F 48% 30.41 in 10.0 mi Calm Calm - N/A   Clear
3:53 PM 6.8 °F - -9.4 °F 48% 30.41 in 10.0 mi Calm Calm - N/A   Clear
4:13 PM 6.8 °F - -7.6 °F 52% 30.41 in 10.0 mi Calm Calm - N/A   Clear
4:33 PM 6.8 °F - -9.4 °F 48% 30.41 in 10.0 mi Calm Calm - N/A   Clear
4:53 PM 6.8 °F - -7.6 °F 52% 30.41 in 10.0 mi Calm Calm - N/A   Clear
5:13 PM 6.8 °F - -7.6 °F 52% 30.42 in 10.0 mi Calm Calm - N/A   Clear
5:33 PM 5.0 °F - -7.6 °F 56% 30.42 in 10.0 mi Calm Calm - N/A   Clear
5:53 PM 3.2 °F - -7.6 °F 61% 30.43 in 10.0 mi Calm Calm - N/A   Clear
6:13 PM 3.2 °F - -9.4 °F 56% 30.42 in 10.0 mi Calm Calm - N/A   Clear
6:33 PM 3.2 °F - -9.4 °F 56% 30.43 in 10.0 mi Calm Calm - N/A   Clear
6:53 PM 3.2 °F - -9.4 °F 56% 30.43 in 10.0 mi Calm Calm - N/A   Clear
7:13 PM 3.2 °F - -9.4 °F 56% 30.43 in 10.0 mi Calm Calm - N/A   Clear
7:33 PM 3.2 °F - -9.4 °F 56% 30.43 in 10.0 mi Calm Calm - N/A   Clear
7:53 PM 3.2 °F - -9.4 °F 56% 30.43 in 10.0 mi Calm Calm - N/A   Clear
8:14 PM 1.4 °F - -9.4 °F 61% 30.43 in 10.0 mi Calm Calm - N/A   Clear
8:33 PM 1.4 °F - -9.4 °F 61% 30.44 in 10.0 mi Calm Calm - N/A   Clear
8:53 PM 1.4 °F - -9.4 °F 61% 30.44 in 10.0 mi Calm Calm - N/A   Clear
9:14 PM 1.4 °F - -9.4 °F 61% 30.44 in 10.0 mi Calm Calm - N/A   Clear
9:33 PM 1.4 °F - -9.4 °F 61% 30.43 in 10.0 mi Calm Calm - N/A   Clear
9:53 PM -0.4 °F - -11.2 °F 60% 30.44 in 10.0 mi Calm Calm - N/A   Clear
10:14 PM -0.4 °F - -11.2 °F 60% 30.45 in 10.0 mi Calm Calm - N/A   Clear
10:33 PM -2.2 °F - -11.2 °F 66% 30.45 in 10.0 mi Calm Calm - N/A   Clear
10:53 PM -2.2 °F - -11.2 °F 66% 30.44 in 10.0 mi Calm Calm - N/A   Clear
11:14 PM -2.2 °F - -11.2 °F 66% 30.44 in 10.0 mi Calm Calm - N/A   Clear
11:33 PM -4.0 °F - -11.2 °F 71% 30.44 in 10.0 mi Calm Calm - N/A   Clear
11:53 PM -5.8 °F - -13.0 °F 71% 30.44 in 10.0 mi Calm Calm - N/A   Clear